sat.trackr.live / text

‹ back to catalog

STARLINK-3236

NORAD 49750 · 2021-115AC

PAYLOAD ACTIVE UNKNOWN

§ Identity

Operator
Country
US
Launch date
2021-12-02
Launch site
AFETR
Launch vehicle
Mass (kg)
RCS (m²)

Purposes: comms

External: N2YO · Heavens-Above · Gunter

§ Orbital elements

Epoch: 2026-09-11T15:45:21.409056Z

Period
94.01 min
Inclination
53.1610°
Eccentricity
0.0001039
Mean motion
15.31703710 rev/d
Perigee alt
470.0 km
Apogee alt
471.4 km
Semi-major
6,848.9 km
B*
1.7500e-5
RAAN
20.9953°
Arg perigee
87.5625°
Mean anomaly
272.5495°
Rev number
26,378

§ Raw data

STARLINK-32361 49750U 21115AC  26254.65649779  .00000178  00000+0  17500-4 0  99992 49750  53.1610  20.9953 0001039  87.5625 272.5495 15.31703710263785

JSON: /api/v1/satellites/49750 · /tle

For live sub-satellite position, see the globe view (requires WebGL).

§ Visibility from observer

Set your observer location to see the next 7 days of passes ≥ 10°. The values pass through the URL so the page stays shareable.

No JS? Fill the form by hand. The geolocation button needs JavaScript.